SXS7DP LTBJ-EHEH

Flight info

Callsign SXS7DP
Flight time N/A
Altitude 36000
Route RIKSO UN127 LMO UN128 FSK DCT DISOR DCT LONTA UM749 UDVAR DCT SOMUN DCT SIVLA DCT BEDOX DCT ERKIR DCT KUNOD DCT EDISA DCT LIMGO DCT LNO
Aircraft B38M/M-SDE1FGHILORVWXY/HB1

Departure

Time N/A
Airport Adnan Menderes International Airport (LTBJ)

Arrival

Time 2026-05-05 17:40
Airport Eindhoven Airport (EHEH)
Time Latitude Longitude Altitude Speed Heading
2026-05-05 15:47 44.09094 19.78152 35957 ft 422 kts 315°
2026-05-05 15:47 44.11933 19.74397 35956 ft 422 kts 315°
2026-05-05 15:48 44.16217 19.68720 35956 ft 423 kts 315°
2026-05-05 15:48 44.20510 19.63019 35975 ft 424 kts 315°
2026-05-05 15:49 44.24774 19.57346 35951 ft 424 kts 315°
2026-05-05 15:49 44.29070 19.51617 35956 ft 424 kts 314°
2026-05-05 15:50 44.33336 19.45918 35952 ft 424 kts 314°
2026-05-05 15:50 44.37623 19.40176 35949 ft 425 kts 314°
2026-05-05 15:51 44.41911 19.34422 35955 ft 428 kts 314°
2026-05-05 15:51 44.46198 19.28657 35938 ft 428 kts 314°
2026-05-05 15:52 44.50452 19.22927 35946 ft 428 kts 314°
2026-05-05 15:52 44.54750 19.17126 35949 ft 428 kts 314°
2026-05-05 15:53 44.59041 19.11313 35948 ft 429 kts 313°
2026-05-05 15:53 44.62553 19.06329 35947 ft 430 kts 313°
2026-05-05 15:54 44.66786 19.00334 35940 ft 430 kts 313°
2026-05-05 15:54 44.70985 18.94382 35937 ft 430 kts 313°
2026-05-05 15:55 44.75198 18.88397 35935 ft 430 kts 313°
2026-05-05 15:55 44.79400 18.82415 35941 ft 430 kts 313°
2026-05-05 15:56 44.83593 18.76432 35937 ft 430 kts 313°
2026-05-05 15:56 44.87773 18.70455 35937 ft 430 kts 313°
2026-05-05 15:57 44.92014 18.64378 35936 ft 430 kts 313°
2026-05-05 15:57 44.96240 18.58307 35931 ft 433 kts 312°
2026-05-05 15:58 45.00468 18.52222 35934 ft 434 kts 312°
2026-05-05 15:58 45.04672 18.46157 35937 ft 434 kts 312°
2026-05-05 15:59 45.08948 18.39976 35937 ft 433 kts 313°
2026-05-05 15:59 45.10903 18.36708 35927 ft 430 kts 302°
2026-05-05 15:59 45.12563 18.33148 35937 ft 431 kts 303°
2026-05-05 16:00 45.15937 18.26084 35943 ft 434 kts 302°
2026-05-05 16:00 45.19297 18.18996 35938 ft 434 kts 302°
2026-05-05 16:01 45.22660 18.11879 35939 ft 434 kts 302°
2026-05-05 16:01 45.26021 18.04750 35938 ft 434 kts 302°
2026-05-05 16:02 45.29392 17.97581 35941 ft 434 kts 302°
2026-05-05 16:02 45.32735 17.90454 35940 ft 435 kts 302°
2026-05-05 16:03 45.36084 17.83297 35941 ft 435 kts 302°
2026-05-05 16:03 45.39427 17.76134 35948 ft 435 kts 302°
2026-05-05 16:04 45.42767 17.68960 35950 ft 434 kts 301°
2026-05-05 16:04 45.46083 17.61819 35955 ft 434 kts 301°
2026-05-05 16:05 45.49406 17.54645 35956 ft 433 kts 301°
2026-05-05 16:05 45.52748 17.47412 35961 ft 435 kts 301°
2026-05-05 16:06 45.56044 17.40259 35967 ft 433 kts 301°
2026-05-05 16:06 45.59342 17.33084 35965 ft 434 kts 301°
2026-05-05 16:07 45.62647 17.25876 35968 ft 434 kts 301°
2026-05-05 16:07 45.65971 17.18608 35968 ft 434 kts 301°
2026-05-05 16:08 45.69272 17.11373 35974 ft 436 kts 301°
2026-05-05 16:08 45.72568 17.04127 35974 ft 435 kts 301°
2026-05-05 16:09 45.75865 16.96863 35975 ft 435 kts 301°
2026-05-05 16:09 45.79142 16.89625 35973 ft 435 kts 301°
2026-05-05 16:10 45.82450 16.82297 35967 ft 435 kts 301°
2026-05-05 16:10 45.85729 16.75014 35984 ft 435 kts 300°
2026-05-05 16:11 45.88980 16.67778 35968 ft 432 kts 300°
2026-05-05 16:12 45.95463 16.53288 35975 ft 432 kts 300°
2026-05-05 16:13 46.03541 16.35128 35968 ft 432 kts 300°
2026-05-05 16:13 46.06291 16.28919 35971 ft 432 kts 300°
2026-05-05 16:14 46.12775 16.14226 35959 ft 432 kts 300°
2026-05-05 16:15 46.19183 15.99632 35962 ft 430 kts 300°
2026-05-05 16:16 46.25567 15.85026 35957 ft 431 kts 300°
2026-05-05 16:17 46.29722 15.73510 35950 ft 429 kts 295°
2026-05-05 16:18 46.33836 15.61928 35946 ft 432 kts 295°
2026-05-05 16:19 46.37951 15.50333 35936 ft 432 kts 295°
2026-05-05 16:19 46.42059 15.38706 35944 ft 430 kts 295°
2026-05-05 16:20 46.47482 15.23283 35934 ft 429 kts 295°
2026-05-05 16:22 46.54241 15.03932 35947 ft 429 kts 294°
2026-05-05 16:23 46.59593 14.88505 35938 ft 429 kts 294°
2026-05-05 16:23 46.63614 14.76858 35954 ft 429 kts 294°
2026-05-05 16:24 46.66292 14.69071 35967 ft 430 kts 294°
2026-05-05 16:25 46.70288 14.57410 35957 ft 429 kts 294°
2026-05-05 16:25 46.74274 14.45724 35965 ft 429 kts 294°
2026-05-05 16:26 46.79571 14.30117 35955 ft 429 kts 294°
2026-05-05 16:27 46.82207 14.22314 35949 ft 429 kts 294°
2026-05-05 16:27 46.84832 14.14519 35924 ft 429 kts 294°
2026-05-05 16:28 46.87442 14.06748 35924 ft 429 kts 294°
2026-05-05 16:28 46.90061 13.98928 35929 ft 428 kts 293°
2026-05-05 16:29 46.92686 13.91062 35918 ft 429 kts 293°
2026-05-05 16:29 46.95294 13.83225 35917 ft 429 kts 293°
2026-05-05 16:30 46.97891 13.75400 35912 ft 428 kts 293°
2026-05-05 16:30 47.00494 13.67531 35904 ft 428 kts 293°
2026-05-05 16:31 47.03082 13.59681 35900 ft 429 kts 293°
2026-05-05 16:31 47.05666 13.51822 35902 ft 429 kts 293°
2026-05-05 16:32 47.08254 13.43929 35899 ft 429 kts 293°
2026-05-05 16:32 47.10839 13.36017 35870 ft 429 kts 292°
2026-05-05 16:33 47.13414 13.28113 35874 ft 429 kts 292°
2026-05-05 16:33 47.15978 13.20218 35865 ft 430 kts 292°
2026-05-05 16:34 47.18548 13.12281 35866 ft 430 kts 292°
2026-05-05 16:34 47.21108 13.04350 35847 ft 429 kts 292°
2026-05-05 16:35 47.23680 12.96358 35830 ft 429 kts 292°
2026-05-05 16:35 47.26209 12.88470 35827 ft 429 kts 291°
2026-05-05 16:36 47.28761 12.80490 35837 ft 430 kts 291°
2026-05-05 16:36 47.31295 12.72541 35833 ft 428 kts 291°
2026-05-05 16:37 47.33824 12.64581 35815 ft 427 kts 291°
2026-05-05 16:37 47.35912 12.57990 35820 ft 427 kts 291°
2026-05-05 16:38 47.38446 12.49968 35800 ft 431 kts 290°
2026-05-05 16:38 47.40976 12.41939 35800 ft 433 kts 290°
2026-05-05 16:39 47.43504 12.33890 35814 ft 433 kts 290°
2026-05-05 16:39 47.46038 12.25801 35796 ft 433 kts 290°
2026-05-05 16:40 47.48559 12.17731 35788 ft 433 kts 290°
2026-05-05 16:40 47.51072 12.09660 35784 ft 433 kts 290°
2026-05-05 16:41 47.53588 12.01600 35771 ft 434 kts 293°
2026-05-05 16:41 47.56383 11.93701 35794 ft 434 kts 293°
2026-05-05 16:42 47.59154 11.85773 35786 ft 434 kts 293°
2026-05-05 16:42 47.61935 11.77780 35817 ft 435 kts 292°
2026-05-05 16:43 47.64706 11.69789 35798 ft 438 kts 292°
2026-05-05 16:43 47.67492 11.61733 35812 ft 438 kts 292°
2026-05-05 16:44 47.70258 11.53707 35787 ft 438 kts 292°
2026-05-05 16:44 47.73027 11.45648 35813 ft 438 kts 292°
2026-05-05 16:45 47.75796 11.37566 35811 ft 439 kts 292°
2026-05-05 16:45 47.78568 11.29449 35821 ft 440 kts 291°
2026-05-05 16:46 47.81330 11.21334 35831 ft 440 kts 291°
2026-05-05 16:46 47.84077 11.13240 35826 ft 440 kts 291°
2026-05-05 16:47 47.86841 11.05069 35825 ft 440 kts 291°
2026-05-05 16:47 47.89598 10.96894 35836 ft 442 kts 291°
2026-05-05 16:48 47.92366 10.88660 35832 ft 443 kts 291°
2026-05-05 16:48 47.95126 10.80422 35829 ft 444 kts 291°
2026-05-05 16:49 47.97876 10.72187 35831 ft 443 kts 291°
2026-05-05 16:49 48.00628 10.63923 35849 ft 444 kts 291°
2026-05-05 16:50 48.03356 10.55703 35831 ft 446 kts 291°
2026-05-05 16:50 48.06108 10.47382 35828 ft 446 kts 291°
2026-05-05 16:51 48.08862 10.39029 35827 ft 446 kts 291°
2026-05-05 16:51 48.11589 10.30731 35852 ft 446 kts 291°
2026-05-05 16:52 48.14364 10.22259 35847 ft 448 kts 291°
2026-05-05 16:52 48.17102 10.13874 35827 ft 448 kts 291°
2026-05-05 16:53 48.19831 10.05485 35828 ft 448 kts 291°
2026-05-05 16:53 48.22566 9.97056 35830 ft 449 kts 291°
2026-05-05 16:54 48.25302 9.88588 35850 ft 451 kts 291°
2026-05-05 16:54 48.28094 9.79929 35834 ft 454 kts 292°
2026-05-05 16:55 48.30797 9.71521 35830 ft 454 kts 292°
2026-05-05 16:55 48.33557 9.62951 35826 ft 455 kts 294°
2026-05-05 16:56 48.35349 9.59009 35834 ft 459 kts 305°
2026-05-05 16:56 48.37297 9.55200 35802 ft 461 kts 303°
2026-05-05 16:56 48.41170 9.47515 35828 ft 462 kts 304°
2026-05-05 16:57 48.45077 9.39786 35819 ft 463 kts 304°
2026-05-05 16:57 48.48977 9.32054 35822 ft 463 kts 304°
2026-05-05 16:58 48.52220 9.25608 35828 ft 463 kts 304°
2026-05-05 16:58 48.56123 9.17829 35833 ft 463 kts 303°
2026-05-05 16:59 48.60018 9.10043 35842 ft 464 kts 304°
2026-05-05 16:59 48.63942 9.02175 35830 ft 463 kts 304°
2026-05-05 17:00 48.67805 8.94410 35825 ft 463 kts 304°
2026-05-05 17:00 48.71699 8.86558 35827 ft 464 kts 304°
2026-05-05 17:01 48.75570 8.78728 35822 ft 464 kts 303°
2026-05-05 17:01 48.79444 8.70873 35830 ft 467 kts 304°
2026-05-05 17:02 48.83313 8.63003 35819 ft 467 kts 304°
2026-05-05 17:02 48.87190 8.55092 35822 ft 467 kts 304°
2026-05-05 17:03 48.91086 8.47121 35825 ft 467 kts 304°
2026-05-05 17:03 48.94959 8.39175 35823 ft 467 kts 303°
2026-05-05 17:04 48.98783 8.31226 35824 ft 466 kts 298°
2026-05-05 17:04 49.01724 8.22520 35810 ft 463 kts 294°
2026-05-05 17:05 49.04632 8.13754 35827 ft 464 kts 294°
2026-05-05 17:05 49.07525 8.04983 35821 ft 464 kts 294°
2026-05-05 17:06 49.10381 7.96286 35840 ft 464 kts 293°
2026-05-05 17:06 49.13271 7.87465 35830 ft 465 kts 294°
2026-05-05 17:07 49.16157 7.78623 35820 ft 465 kts 294°
2026-05-05 17:07 49.19027 7.69796 35821 ft 465 kts 293°
2026-05-05 17:08 49.21908 7.60905 35811 ft 465 kts 293°
2026-05-05 17:08 49.24775 7.52026 35824 ft 465 kts 293°
2026-05-05 17:09 49.27633 7.43141 35816 ft 465 kts 293°
2026-05-05 17:09 49.30466 7.34306 35804 ft 465 kts 293°
2026-05-05 17:10 49.33314 7.25393 35827 ft 466 kts 293°
2026-05-05 17:10 49.36151 7.16482 35832 ft 466 kts 293°
2026-05-05 17:11 49.38967 7.07606 35816 ft 466 kts 293°
2026-05-05 17:11 49.41785 6.98689 35818 ft 466 kts 293°
2026-05-05 17:12 49.44608 6.89726 35812 ft 466 kts 293°
2026-05-05 17:12 49.47427 6.80742 35817 ft 466 kts 293°
2026-05-05 17:13 49.50236 6.71758 35828 ft 466 kts 293°
2026-05-05 17:13 49.53036 6.62771 35813 ft 466 kts 293°
2026-05-05 17:14 49.55828 6.53777 35821 ft 466 kts 293°
2026-05-05 17:14 49.58624 6.44745 35827 ft 467 kts 293°
2026-05-05 17:15 49.61416 6.35708 35830 ft 468 kts 294°
2026-05-05 17:15 49.63166 6.31513 35803 ft 470 kts 310°
2026-05-05 17:15 49.65572 6.28094 35852 ft 472 kts 324°
2026-05-05 17:16 49.68451 6.25631 35825 ft 474 kts 337°
2026-05-05 17:16 49.71551 6.23699 35839 ft 475 kts 338°
2026-05-05 17:16 49.77667 6.19988 35825 ft 475 kts 339°
2026-05-05 17:17 49.80785 6.18129 35550 ft 473 kts 339°
2026-05-05 17:17 49.83876 6.16281 34679 ft 478 kts 339°
2026-05-05 17:17 49.86970 6.14428 33955 ft 480 kts 340°
2026-05-05 17:17 49.90078 6.12570 33376 ft 477 kts 340°
2026-05-05 17:18 49.93203 6.10705 32895 ft 470 kts 340°
2026-05-05 17:18 49.96237 6.08891 32423 ft 465 kts 340°
2026-05-05 17:18 49.99241 6.07091 31892 ft 461 kts 340°
2026-05-05 17:18 50.02224 6.05300 31323 ft 459 kts 340°
2026-05-05 17:19 50.05198 6.03512 30769 ft 456 kts 340°
2026-05-05 17:19 50.08149 6.01737 30254 ft 453 kts 340°
2026-05-05 17:19 50.11083 5.99969 29710 ft 450 kts 340°
2026-05-05 17:19 50.14003 5.98207 29115 ft 447 kts 340°
2026-05-05 17:20 50.16882 5.96469 28596 ft 443 kts 340°
2026-05-05 17:20 50.19741 5.94741 28090 ft 439 kts 340°
2026-05-05 17:20 50.22596 5.93012 27566 ft 435 kts 340°
2026-05-05 17:20 50.24435 5.91898 27236 ft 433 kts 340°
2026-05-05 17:21 50.27245 5.90193 26727 ft 430 kts 339°
2026-05-05 17:21 50.30021 5.88507 26244 ft 426 kts 339°
2026-05-05 17:21 50.32720 5.86864 25778 ft 423 kts 339°
2026-05-05 17:22 50.38186 5.83532 24823 ft 418 kts 339°
2026-05-05 17:22 50.40880 5.81887 24370 ft 415 kts 339°
2026-05-05 17:22 50.43568 5.80243 23914 ft 414 kts 339°
2026-05-05 17:22 50.46230 5.78614 23463 ft 412 kts 339°
2026-05-05 17:23 50.48877 5.76991 22945 ft 411 kts 339°
2026-05-05 17:23 50.51506 5.75379 22453 ft 399 kts 338°
2026-05-05 17:23 50.54052 5.73815 22069 ft 384 kts 338°
2026-05-05 17:23 50.56505 5.72362 21677 ft 376 kts 343°
2026-05-05 17:24 50.59102 5.71846 21194 ft 375 kts
2026-05-05 17:24 50.61642 5.72572 20829 ft 370 kts 14°
2026-05-05 17:24 50.64122 5.73551 20496 ft 366 kts 15°
2026-05-05 17:24 50.66583 5.74567 20107 ft 364 kts 15°
2026-05-05 17:25 50.69022 5.75599 19729 ft 362 kts 15°
2026-05-05 17:25 50.70628 5.76290 19480 ft 361 kts 15°
2026-05-05 17:25 50.73856 5.77691 18974 ft 358 kts 15°
2026-05-05 17:25 50.76231 5.78729 18607 ft 357 kts 15°
2026-05-05 17:26 50.78626 5.79778 18234 ft 356 kts 15°
2026-05-05 17:26 50.80995 5.80817 17823 ft 355 kts 15°
2026-05-05 17:26 50.83370 5.81860 17426 ft 353 kts 15°
2026-05-05 17:26 50.85728 5.82897 17050 ft 350 kts 15°
2026-05-05 17:27 50.88070 5.83927 16680 ft 347 kts 15°
2026-05-05 17:27 50.90394 5.84951 16315 ft 345 kts 15°
2026-05-05 17:27 50.92701 5.85969 15951 ft 343 kts 15°
2026-05-05 17:27 50.94993 5.86981 15592 ft 341 kts 15°
2026-05-05 17:28 50.97268 5.87987 15230 ft 339 kts 16°
2026-05-05 17:28 50.99541 5.88992 14876 ft 337 kts 16°
2026-05-05 17:28 51.01791 5.89988 14516 ft 335 kts 16°
2026-05-05 17:28 51.04020 5.90976 14166 ft 333 kts 16°
2026-05-05 17:29 51.06250 5.91965 13814 ft 332 kts 16°
2026-05-05 17:29 51.08469 5.92937 13427 ft 330 kts 14°
2026-05-05 17:29 51.10760 5.93138 12979 ft 330 kts 353°
2026-05-05 17:29 51.13026 5.92671 12641 ft 327 kts 353°
2026-05-05 17:30 51.15261 5.92223 12318 ft 323 kts 352°
2026-05-05 17:30 51.17480 5.91765 11977 ft 321 kts 352°
2026-05-05 17:30 51.19689 5.91302 11611 ft 319 kts 352°
2026-05-05 17:30 51.21887 5.90839 11259 ft 317 kts 352°
2026-05-05 17:31 51.24013 5.89999 10885 ft 314 kts 333°
2026-05-05 17:31 51.25745 5.87951 10523 ft 311 kts 310°
2026-05-05 17:31 51.27034 5.85224 10306 ft 303 kts 304°
2026-05-05 17:31 51.28243 5.82529 10196 ft 293 kts 304°
2026-05-05 17:32 51.29388 5.79939 10066 ft 284 kts 304°
2026-05-05 17:32 51.30506 5.77385 9942 ft 275 kts 303°
2026-05-05 17:32 51.31587 5.74900 9739 ft 270 kts 304°
2026-05-05 17:32 51.32651 5.72442 9453 ft 267 kts 305°
2026-05-05 17:33 51.33685 5.70038 9358 ft 258 kts 303°
2026-05-05 17:33 51.34358 5.67331 9073 ft 268 kts 277°
2026-05-05 17:33 51.34396 5.64311 8550 ft 276 kts 270°
2026-05-05 17:33 51.34062 5.61257 7963 ft 286 kts 248°
2026-05-05 17:34 51.33298 5.58307 7418 ft 293 kts 250°
2026-05-05 17:34 51.32596 5.55200 6821 ft 300 kts 251°
2026-05-05 17:34 51.31914 5.52006 6234 ft 304 kts 253°
2026-05-05 17:34 51.31256 5.48799 5610 ft 303 kts 254°
2026-05-05 17:35 51.30602 5.45565 5066 ft 299 kts 253°
2026-05-05 17:35 51.29976 5.42435 4645 ft 291 kts 253°
2026-05-05 17:35 51.29376 5.39421 4238 ft 282 kts 253°
2026-05-05 17:35 51.28924 5.36442 3781 ft 272 kts 271°
2026-05-05 17:36 51.29340 5.33613 3367 ft 257 kts 302°
2026-05-05 17:36 51.30274 5.31284 3139 ft 243 kts 307°
2026-05-05 17:36 51.31175 5.29088 2964 ft 234 kts 307°
2026-05-05 17:36 51.32093 5.26996 2747 ft 223 kts 318°
2026-05-05 17:37 51.33379 5.25907 2416 ft 203 kts 356°
2026-05-05 17:37 51.34303 5.25977 2212 ft 193 kts 17°
2026-05-05 17:37 51.35812 5.27174 2031 ft 172 kts 33°
2026-05-05 17:37 51.36758 5.28216 2036 ft 160 kts 34°
2026-05-05 17:38 51.37682 5.29249 2066 ft 164 kts 34°
2026-05-05 17:38 51.38613 5.30289 2015 ft 163 kts 34°
2026-05-05 17:38 51.39537 5.31323 1698 ft 160 kts 34°
2026-05-05 17:38 51.40429 5.32320 1353 ft 153 kts 34°
2026-05-05 17:39 51.41290 5.33284 988 ft 147 kts 34°
2026-05-05 17:39 51.42106 5.34195 693 ft 142 kts 33°
2026-05-05 17:39 51.42914 5.35099 435 ft 142 kts 35°
2026-05-05 17:39 51.43711 5.36001 214 ft 139 kts 33°
2026-05-05 17:40 51.44495 5.36874 83 ft 128 kts 33°
2026-05-05 17:40 51.45114 5.37564 85 ft 77 kts 34°
2026-05-05 17:40 51.45460 5.37943 85 ft 43 kts 34°
2026-05-05 17:40 51.45680 5.38200 82 ft 39 kts 35°
2026-05-05 17:41 51.45895 5.38441 84 ft 31 kts 34°
2026-05-05 17:41 51.46058 5.38621 85 ft 24 kts 34°
2026-05-05 17:41 51.46083 5.38730 86 ft 12 kts 117°
2026-05-05 17:41 51.46043 5.38822 82 ft 8 kts 123°
2026-05-05 17:42 51.46031 5.38850 82 ft 4 kts 126°
2026-05-05 17:42 51.46021 5.38872 82 ft 5 kts 124°
2026-05-05 17:42 51.45998 5.38926 83 ft 7 kts 125°
2026-05-05 17:42 51.45964 5.39002 84 ft 8 kts 125°
2026-05-05 17:43 51.45923 5.39003 80 ft 7 kts 216°
2026-05-05 17:43 51.45906 5.38983 82 ft 1 kts 209°
2026-05-05 17:43 51.45897 5.38985 81 ft 1 kts 158°
2026-05-05 17:43 51.45882 5.39002 84 ft 4 kts 135°
2026-05-05 17:44 51.45862 5.39041 83 ft 0 kts 123°
2026-05-05 17:44 51.45856 5.39055 84 ft 2 kts 126°